Time,TemperatureF,DewpointF,PressureIn,WindDirection,WindDirectionDegrees,WindSpeedMPH,WindSpeedGustMPH,Humidity,HourlyPrecipIn,Conditions,Clouds,dailyrainin,SoftwareType,DateUTC
2013-04-06 00:02:00,48.0,31.0,-100.00,South,174,6.0,9.0,53,0.00,,,-99.99,,2013-04-06 06:02:00,
2013-04-06 00:12:00,49.0,31.0,-100.00,SSE,164,7.0,9.0,48,0.00,,,-99.99,,2013-04-06 06:12:00,
2013-04-06 00:22:00,49.0,31.0,-100.00,SW,215,3.0,4.0,49,0.00,,,-99.99,,2013-04-06 06:22:00,
2013-04-06 00:32:00,49.0,31.0,-100.00,SW,215,3.0,4.0,49,0.00,,,-99.99,,2013-04-06 06:32:00,
2013-04-06 00:42:00,49.0,31.0,-100.00,SW,215,3.0,4.0,49,0.00,,,-99.99,,2013-04-06 06:42:00,
2013-04-06 00:52:00,47.0,30.0,-100.00,SSE,164,6.0,6.0,52,0.00,,,-99.99,,2013-04-06 06:52:00,
2013-04-06 01:02:00,47.0,30.0,-100.00,SSE,164,6.0,6.0,52,0.00,,,-99.99,,2013-04-06 07:02:00,
2013-04-06 01:12:00,47.0,31.0,-100.00,SSE,168,4.0,6.0,54,0.00,,,-99.99,,2013-04-06 07:12:00,
2013-04-06 01:22:00,46.0,31.0,-100.00,South,191,4.0,6.0,55,0.00,,,-99.99,,2013-04-06 07:22:00,
2013-04-06 01:32:00,46.0,31.0,-100.00,South,191,4.0,6.0,55,0.00,,,-99.99,,2013-04-06 07:32:00,
2013-04-06 01:42:00,47.0,30.0,-100.00,SSE,152,6.0,8.0,51,0.00,,,-99.99,,2013-04-06 07:42:00,
2013-04-06 01:52:00,44.0,30.0,-100.00,SE,140,7.0,8.0,59,0.00,,,-99.99,,2013-04-06 07:52:00,
2013-04-06 02:02:00,44.0,30.0,-100.00,SE,140,7.0,8.0,59,0.00,,,-99.99,,2013-04-06 08:02:00,
2013-04-06 02:12:00,43.0,30.0,-100.00,SSE,165,4.0,5.0,60,0.00,,,-99.99,,2013-04-06 08:12:00,
2013-04-06 02:22:00,43.0,30.0,-100.00,SSE,165,4.0,5.0,60,0.00,,,-99.99,,2013-04-06 08:22:00,
2013-04-06 02:32:00,43.0,30.0,-100.00,SSE,165,4.0,5.0,60,0.00,,,-99.99,,2013-04-06 08:32:00,
2013-04-06 02:42:00,46.0,30.0,-100.00,South,171,5.0,8.0,53,0.00,,,-99.99,,2013-04-06 08:42:00,
2013-04-06 02:52:00,46.0,30.0,-100.00,South,172,3.0,5.0,54,0.00,,,-99.99,,2013-04-06 08:52:00,
2013-04-06 03:02:00,46.0,30.0,-100.00,South,172,3.0,5.0,54,0.00,,,-99.99,,2013-04-06 09:02:00,
2013-04-06 03:12:00,46.0,30.0,-100.00,South,172,3.0,5.0,54,0.00,,,-99.99,,2013-04-06 09:12:00,
2013-04-06 03:22:00,45.0,30.0,-100.00,SSE,148,3.0,4.0,57,0.00,,,-99.99,,2013-04-06 09:22:00,
2013-04-06 03:32:00,45.0,30.0,-100.00,SSE,148,3.0,4.0,57,0.00,,,-99.99,,2013-04-06 09:32:00,
2013-04-06 03:42:00,44.0,30.0,-100.00,SSE,164,4.0,6.0,59,0.00,,,-99.99,,2013-04-06 09:42:00,
2013-04-06 03:53:00,44.0,31.0,-100.00,SW,222,2.0,4.0,60,0.00,,,-99.99,,2013-04-06 09:53:00,
2013-04-06 04:02:00,44.0,31.0,-100.00,SW,222,2.0,4.0,60,0.00,,,-99.99,,2013-04-06 10:02:00,
2013-04-06 04:12:00,45.0,31.0,-100.00,SSW,208,3.0,4.0,58,0.00,,,-99.99,,2013-04-06 10:12:00,
2013-04-06 04:22:00,45.0,31.0,-100.00,SSW,208,3.0,4.0,58,0.00,,,-99.99,,2013-04-06 10:22:00,
2013-04-06 04:32:00,45.0,31.0,-100.00,SSW,208,3.0,4.0,58,0.00,,,-99.99,,2013-04-06 10:32:00,
2013-04-06 04:42:00,46.0,30.0,-100.00,SSE,154,7.0,8.0,55,0.00,,,-99.99,,2013-04-06 10:42:00,
2013-04-06 04:53:00,46.0,30.0,-100.00,SSE,154,7.0,8.0,55,0.00,,,-99.99,,2013-04-06 10:53:00,
2013-04-06 05:02:00,46.0,30.0,-100.00,SSE,154,7.0,8.0,55,0.00,,,-99.99,,2013-04-06 11:02:00,
2013-04-06 05:12:00,45.0,31.0,-100.00,South,178,8.0,9.0,57,0.00,,,-99.99,,2013-04-06 11:12:00,
2013-04-06 05:22:00,45.0,31.0,-100.00,South,178,8.0,9.0,57,0.00,,,-99.99,,2013-04-06 11:22:00,
2013-04-06 05:32:00,45.0,31.0,-100.00,South,178,8.0,9.0,57,0.00,,,-99.99,,2013-04-06 11:32:00,
2013-04-06 05:42:00,44.0,32.0,-100.00,SSW,195,4.0,6.0,62,0.00,,,-99.99,,2013-04-06 11:42:00,
2013-04-06 05:52:00,44.0,32.0,-100.00,SSW,195,4.0,6.0,62,0.00,,,-99.99,,2013-04-06 11:52:00,
2013-04-06 06:02:00,44.0,32.0,-100.00,SSW,195,4.0,6.0,62,0.00,,,-99.99,,2013-04-06 12:02:00,
2013-04-06 06:12:00,47.0,31.0,-100.00,SSE,157,7.0,9.0,53,0.00,,,-99.99,,2013-04-06 12:12:00,
2013-04-06 06:22:00,47.0,31.0,-100.00,SSE,157,7.0,9.0,53,0.00,,,-99.99,,2013-04-06 12:22:00,
2013-04-06 06:42:00,47.0,32.0,-100.00,South,188,10.0,13.0,55,0.00,,,-99.99,,2013-04-06 12:42:00,
2013-04-06 06:52:00,49.0,33.0,-100.00,South,178,9.0,11.0,53,0.00,,,-99.99,,2013-04-06 12:52:00,
2013-04-06 07:02:00,49.0,33.0,-100.00,South,178,9.0,11.0,53,0.00,,,-99.99,,2013-04-06 13:02:00,
2013-04-06 07:12:00,49.0,33.0,-100.00,SSE,155,7.0,9.0,54,0.00,,,-99.99,,2013-04-06 13:12:00,
2013-04-06 07:23:00,49.0,33.0,-100.00,SSE,155,7.0,9.0,54,0.00,,,-99.99,,2013-04-06 13:23:00,
2013-04-06 07:42:00,44.0,33.0,-100.00,South,186,8.0,12.0,66,0.00,,,-99.99,,2013-04-06 13:42:00,
2013-04-06 07:53:00,43.0,34.0,-100.00,South,179,9.0,11.0,68,0.00,,,-99.99,,2013-04-06 13:53:00,
2013-04-06 08:03:00,43.0,34.0,-100.00,South,179,9.0,11.0,68,0.00,,,-99.99,,2013-04-06 14:03:00,
2013-04-06 08:12:00,44.0,33.0,-100.00,SSW,193,5.0,7.0,67,0.00,,,-99.99,,2013-04-06 14:12:00,
2013-04-06 08:22:00,45.0,33.0,-100.00,SSW,213,8.0,10.0,63,0.00,,,-99.99,,2013-04-06 14:22:00,
2013-04-06 08:32:00,45.0,33.0,-100.00,SSW,213,8.0,10.0,63,0.00,,,-99.99,,2013-04-06 14:32:00,
2013-04-06 08:42:00,48.0,33.0,-100.00,WSW,251,3.0,9.0,57,0.00,,,-99.99,,2013-04-06 14:42:00,
2013-04-06 08:53:00,48.0,34.0,-100.00,West,275,4.0,7.0,59,0.00,,,-99.99,,2013-04-06 14:53:00,
2013-04-06 09:02:00,48.0,34.0,-100.00,West,275,4.0,7.0,59,0.00,,,-99.99,,2013-04-06 15:02:00,
2013-04-06 09:12:00,48.0,34.0,-100.00,West,275,5.0,9.0,59,0.00,,,-99.99,,2013-04-06 15:12:00,
2013-04-06 09:22:00,49.0,35.0,-100.00,West,260,3.0,6.0,58,0.00,,,-99.99,,2013-04-06 15:22:00,
2013-04-06 09:32:00,49.0,35.0,-100.00,West,260,3.0,6.0,58,0.00,,,-99.99,,2013-04-06 15:32:00,
2013-04-06 09:42:00,49.0,35.0,-100.00,WSW,254,7.0,11.0,56,0.00,,,-99.99,,2013-04-06 15:42:00,
2013-04-06 09:53:00,49.0,35.0,-100.00,WSW,254,7.0,11.0,56,0.00,,,-99.99,,2013-04-06 15:53:00,
2013-04-06 10:04:00,49.0,35.0,-100.00,WSW,254,7.0,11.0,56,0.00,,,-99.99,,2013-04-06 16:04:00,
2013-04-06 10:16:00,48.0,35.0,-100.00,WSW,256,5.0,12.0,60,0.00,,,-99.99,,2013-04-06 16:16:00,
2013-04-06 10:23:00,48.0,35.0,-100.00,WSW,256,5.0,12.0,60,0.00,,,-99.99,,2013-04-06 16:23:00,
2013-04-06 10:32:00,48.0,35.0,-100.00,WSW,256,5.0,12.0,60,0.00,,,-99.99,,2013-04-06 16:32:00,
2013-04-06 10:42:00,49.0,36.0,-100.00,WSW,256,6.0,9.0,61,0.00,,,-99.99,,2013-04-06 16:42:00,
2013-04-06 10:53:00,49.0,37.0,-100.00,WSW,237,6.0,10.0,63,0.00,,,-99.99,,2013-04-06 16:53:00,
2013-04-06 11:02:00,49.0,37.0,-100.00,WSW,237,6.0,10.0,63,0.00,,,-99.99,,2013-04-06 17:02:00,
2013-04-06 11:12:00,49.0,37.0,-100.00,SW,215,5.0,9.0,64,0.00,,,-99.99,,2013-04-06 17:12:00,
2013-04-06 11:22:00,50.0,37.0,-100.00,SW,227,6.0,9.0,60,0.00,,,-99.99,,2013-04-06 17:22:00,
2013-04-06 11:32:00,50.0,37.0,-100.00,SW,227,6.0,9.0,60,0.00,,,-99.99,,2013-04-06 17:32:00,
2013-04-06 11:42:00,50.0,37.0,-100.00,WSW,250,4.0,8.0,60,0.00,,,-99.99,,2013-04-06 17:42:00,
2013-04-06 11:52:00,50.0,37.0,-100.00,West,260,5.0,9.0,61,0.00,,,-99.99,,2013-04-06 17:52:00,
2013-04-06 12:02:00,50.0,37.0,-100.00,West,260,5.0,9.0,61,0.00,,,-99.99,,2013-04-06 18:02:00,
2013-04-06 12:12:00,50.0,37.0,-100.00,West,260,5.0,9.0,61,0.00,,,-99.99,,2013-04-06 18:12:00,
2013-04-06 12:23:00,51.0,37.0,-100.00,WSW,253,8.0,11.0,59,0.00,,,-99.99,,2013-04-06 18:23:00,
2013-04-06 12:32:00,51.0,37.0,-100.00,WSW,253,8.0,11.0,59,0.00,,,-99.99,,2013-04-06 18:32:00,
2013-04-06 12:42:00,50.0,39.0,-100.00,WSW,256,9.0,13.0,64,0.04,,,-99.99,,2013-04-06 18:42:00,
2013-04-06 12:52:00,50.0,39.0,-100.00,WSW,256,9.0,13.0,64,0.04,,,-99.99,,2013-04-06 18:52:00,
2013-04-06 13:02:00,50.0,39.0,-100.00,WSW,256,9.0,13.0,64,0.04,,,-99.99,,2013-04-06 19:02:00,
2013-04-06 13:12:00,52.0,38.0,-100.00,West,270,8.0,13.0,57,0.00,,,-99.99,,2013-04-06 19:12:00,
2013-04-06 13:22:00,52.0,38.0,-100.00,West,270,8.0,13.0,57,0.00,,,-99.99,,2013-04-06 19:22:00,
2013-04-06 13:32:00,52.0,38.0,-100.00,West,270,8.0,13.0,57,0.00,,,-99.99,,2013-04-06 19:32:00,
2013-04-06 13:42:00,52.0,37.0,-100.00,West,260,10.0,18.0,58,0.00,,,-99.99,,2013-04-06 19:42:00,
2013-04-06 13:53:00,51.0,38.0,-100.00,WSW,247,8.0,13.0,61,0.00,,,-99.99,,2013-04-06 19:53:00,
2013-04-06 14:02:00,51.0,38.0,-100.00,WSW,247,8.0,13.0,61,0.00,,,-99.99,,2013-04-06 20:02:00,
2013-04-06 14:12:00,52.0,39.0,-100.00,WSW,237,5.0,7.0,61,0.00,,,-99.99,,2013-04-06 20:12:00,
2013-04-06 14:22:00,51.0,38.0,-100.00,WSW,247,7.0,11.0,60,0.00,,,-99.99,,2013-04-06 20:22:00,
2013-04-06 14:32:00,51.0,38.0,-100.00,WSW,247,7.0,11.0,60,0.00,,,-99.99,,2013-04-06 20:32:00,
2013-04-06 14:42:00,52.0,37.0,-100.00,WSW,256,6.0,10.0,57,0.00,,,-99.99,,2013-04-06 20:42:00,
2013-04-06 14:52:00,52.0,37.0,-100.00,WSW,256,6.0,10.0,57,0.00,,,-99.99,,2013-04-06 20:52:00,
2013-04-06 15:02:00,52.0,37.0,-100.00,WSW,256,6.0,10.0,57,0.00,,,-99.99,,2013-04-06 21:02:00,
2013-04-06 15:12:00,52.0,37.0,-100.00,WSW,258,7.0,11.0,57,0.00,,,-99.99,,2013-04-06 21:12:00,
2013-04-06 15:22:00,54.0,37.0,-100.00,WSW,251,11.0,18.0,52,0.00,,,-99.99,,2013-04-06 21:22:00,
2013-04-06 15:33:00,54.0,37.0,-100.00,WSW,251,11.0,18.0,52,0.00,,,-99.99,,2013-04-06 21:33:00,
2013-04-06 15:43:00,54.0,37.0,-100.00,WSW,251,11.0,18.0,52,0.00,,,-99.99,,2013-04-06 21:43:00,
2013-04-06 15:52:00,55.0,37.0,-100.00,WSW,251,7.0,12.0,50,0.00,,,-99.99,,2013-04-06 21:52:00,
2013-04-06 16:02:00,55.0,37.0,-100.00,WSW,251,7.0,12.0,50,0.00,,,-99.99,,2013-04-06 22:02:00,
2013-04-06 16:13:00,58.0,34.0,-100.00,WNW,285,13.0,20.0,41,0.00,,,-99.99,,2013-04-06 22:13:00,
2013-04-06 16:22:00,56.0,34.0,-100.00,WNW,292,9.0,15.0,42,0.00,,,-99.99,,2013-04-06 22:22:00,
2013-04-06 16:33:00,56.0,34.0,-100.00,WNW,292,9.0,15.0,42,0.00,,,-99.99,,2013-04-06 22:33:00,
2013-04-06 16:42:00,56.0,34.0,-100.00,WNW,292,9.0,15.0,42,0.00,,,-99.99,,2013-04-06 22:42:00,
2013-04-06 16:53:00,54.0,37.0,-100.00,WNW,291,13.0,26.0,52,0.00,,,-99.99,,2013-04-06 22:53:00,
2013-04-06 17:02:00,54.0,37.0,-100.00,WNW,291,13.0,26.0,52,0.00,,,-99.99,,2013-04-06 23:02:00,
2013-04-06 17:13:00,55.0,38.0,-100.00,WNW,291,11.0,16.0,52,0.00,,,-99.99,,2013-04-06 23:13:00,
2013-04-06 17:22:00,53.0,38.0,-100.00,WNW,299,11.0,24.0,56,0.00,,,-99.99,,2013-04-06 23:22:00,
2013-04-06 17:33:00,53.0,38.0,-100.00,WNW,299,11.0,24.0,56,0.00,,,-99.99,,2013-04-06 23:33:00,
2013-04-06 17:42:00,54.0,37.0,-100.00,WNW,294,11.0,22.0,52,0.00,,,-99.99,,2013-04-06 23:42:00,
2013-04-06 17:53:00,54.0,37.0,-100.00,WNW,294,11.0,22.0,52,0.00,,,-99.99,,2013-04-06 23:53:00,
2013-04-06 18:02:00,54.0,37.0,-100.00,WNW,294,11.0,22.0,52,0.00,,,-99.99,,2013-04-07 00:02:00,
2013-04-06 18:12:00,53.0,37.0,-100.00,West,274,9.0,14.0,54,0.00,,,-99.99,,2013-04-07 00:12:00,
2013-04-06 18:22:00,54.0,37.0,-100.00,West,275,4.0,11.0,53,0.00,,,-99.99,,2013-04-07 00:22:00,
2013-04-06 18:32:00,54.0,37.0,-100.00,West,275,4.0,11.0,53,0.00,,,-99.99,,2013-04-07 00:32:00,
2013-04-06 18:42:00,53.0,38.0,-100.00,West,265,5.0,7.0,56,0.00,,,-99.99,,2013-04-07 00:42:00,
2013-04-06 18:53:00,52.0,37.0,-100.00,WSW,256,9.0,17.0,56,0.00,,,-99.99,,2013-04-07 00:53:00,
2013-04-06 19:02:00,52.0,37.0,-100.00,WSW,256,9.0,17.0,56,0.00,,,-99.99,,2013-04-07 01:02:00,
2013-04-06 19:12:00,52.0,37.0,-100.00,West,263,7.0,12.0,56,0.00,,,-99.99,,2013-04-07 01:12:00,
2013-04-06 19:22:00,52.0,36.0,-100.00,WSW,258,9.0,15.0,55,0.00,,,-99.99,,2013-04-07 01:22:00,
2013-04-06 19:32:00,52.0,36.0,-100.00,WSW,258,9.0,15.0,55,0.00,,,-99.99,,2013-04-07 01:32:00,
2013-04-06 19:42:00,53.0,36.0,-100.00,WSW,256,5.0,9.0,51,0.00,,,-99.99,,2013-04-07 01:42:00,
2013-04-06 19:53:00,53.0,35.0,-100.00,West,265,7.0,14.0,50,0.00,,,-99.99,,2013-04-07 01:53:00,
2013-04-06 20:02:00,53.0,35.0,-100.00,West,265,7.0,14.0,50,0.00,,,-99.99,,2013-04-07 02:02:00,
2013-04-06 20:12:00,51.0,34.0,-100.00,WSW,253,5.0,10.0,51,0.00,,,-99.99,,2013-04-07 02:12:00,
2013-04-06 20:22:00,51.0,34.0,-100.00,WSW,253,5.0,10.0,51,0.00,,,-99.99,,2013-04-07 02:22:00,
2013-04-06 20:32:00,51.0,34.0,-100.00,WSW,253,5.0,10.0,51,0.00,,,-99.99,,2013-04-07 02:32:00,
2013-04-06 20:42:00,50.0,34.0,-100.00,WSW,251,5.0,9.0,54,0.00,,,-99.99,,2013-04-07 02:42:00,
2013-04-06 20:52:00,49.0,34.0,-100.00,WSW,254,3.0,5.0,55,0.00,,,-99.99,,2013-04-07 02:52:00,
2013-04-06 21:02:00,49.0,34.0,-100.00,WSW,243,4.0,5.0,55,0.00,,,-99.99,,2013-04-07 03:02:00,
2013-04-06 21:12:00,49.0,34.0,-100.00,WSW,243,4.0,5.0,55,0.00,,,-99.99,,2013-04-07 03:12:00,
2013-04-06 21:22:00,49.0,34.0,-100.00,WSW,239,3.0,5.0,57,0.00,,,-99.99,,2013-04-07 03:22:00,
2013-04-06 21:33:00,49.0,34.0,-100.00,WSW,239,3.0,5.0,57,0.00,,,-99.99,,2013-04-07 03:33:00,
2013-04-06 21:43:00,49.0,35.0,-100.00,WSW,258,3.0,5.0,58,0.00,,,-99.99,,2013-04-07 03:43:00,
2013-04-06 21:54:00,47.0,38.0,-100.00,SW,233,3.0,5.0,71,0.00,,,-99.99,,2013-04-07 03:54:00,
2013-04-06 22:03:00,47.0,38.0,-100.00,SW,233,3.0,5.0,71,0.00,,,-99.99,,2013-04-07 04:03:00,
2013-04-06 22:13:00,47.0,38.0,-100.00,SSW,208,4.0,6.0,70,0.00,,,-99.99,,2013-04-07 04:13:00,
2013-04-06 22:23:00,47.0,37.0,-100.00,SW,224,4.0,7.0,69,0.00,,,-99.99,,2013-04-07 04:23:00,
2013-04-06 22:32:00,47.0,37.0,-100.00,SW,224,4.0,7.0,69,0.00,,,-99.99,,2013-04-07 04:32:00,
2013-04-06 22:43:00,46.0,37.0,-100.00,South,186,8.0,9.0,71,0.00,,,-99.99,,2013-04-07 04:43:00,
2013-04-06 22:53:00,47.0,37.0,-100.00,South,175,10.0,14.0,67,0.00,,,-99.99,,2013-04-07 04:53:00,
2013-04-06 23:02:00,47.0,37.0,-100.00,South,175,10.0,14.0,67,0.00,,,-99.99,,2013-04-07 05:02:00,
2013-04-06 23:12:00,47.0,36.0,-100.00,SSW,208,7.0,11.0,67,0.00,,,-99.99,,2013-04-07 05:12:00,
2013-04-06 23:22:00,47.0,36.0,-100.00,SSW,206,8.0,12.0,65,0.00,,,-99.99,,2013-04-07 05:22:00,
2013-04-06 23:32:00,47.0,36.0,-100.00,SSW,206,8.0,12.0,65,0.00,,,-99.99,,2013-04-07 05:32:00,
2013-04-06 23:42:00,47.0,36.0,-100.00,SSW,206,8.0,12.0,65,0.00,,,-99.99,,2013-04-07 05:42:00,
2013-04-06 23:52:00,46.0,36.0,-100.00,SSW,199,5.0,6.0,67,0.00,,,-99.99,,2013-04-07 05:52:00,